#timestamp,LO_Frequency,Hit,StdDev 
1581843615.9,286046995.9,N
1581843635.7,286046997.6,N
1581843655.6,286046997.2,N
1581843675.4,286046994.9,N
1581843695.2,286046998.8,N
1581843715.1,286047001.0,N
1581843716.0,286047001.0,N
1581843735.8,286047000.5,N
1581843755.7,286047000.3,N
1581843775.5,286046999.1,N
1581843795.3,286046997.6,N
1581843815.2,286046993.8,N
1581843835.0,286046992.1,N
1581843835.9,286046992.1,N
1581843855.7,286046993.1,N
1581843875.6,286046992.5,N
1581843895.4,286046994.5,N
1581843915.3,286046991.8,N
1581843935.1,286046993.7,N
1581843955.8,286046997.5,N
1581843975.7,286046997.6,N
1581843995.5,286046996.5,N
1581844015.4,286047000.8,N
1581844035.2,286047002.8,N
1581844055.0,286047002.0,N
1581844055.9,286047002.0,N
1581844075.8,286047000.4,N
1581844095.6,286046998.7,N
1581844115.5,286046997.0,N
1581844135.3,286046995.3,N
1581844155.1,286046992.4,N
1581844175.9,286046993.2,N
1581844195.7,286046991.7,N
1581844215.5,286046990.2,N
1581844235.4,286046993.0,N
1581844255.2,286046993.5,N
1581844275.1,286046993.8,N
1581844276.0,286046993.8,N
1581844295.8,286046995.2,N
1581844315.6,286046997.5,N
1581844335.5,286046998.4,N
1581844355.3,286047001.1,N
1581844375.1,286046997.7,N
1581844395.9,286046997.6,N
1581844415.7,286046996.4,N
1581844435.6,286046992.4,N
1581844455.4,286046990.5,N
1581844475.2,286046994.4,N
1581844495.1,286046996.9,N
1581844496.0,286046996.9,N
1581844515.8,286046995.4,N
1581844535.7,286046997.3,N
1581844555.5,286046998.6,N
1581844575.3,286046998.5,N
1581844595.2,286047000.8,N
1581844615.0,286047001.4,N
1581844615.9,286047001.4,N
1581844635.7,286047001.6,N
1581844655.6,286047001.1,N
1581844675.4,286046996.7,N
1581844695.3,286046995.4,N
1581844715.1,286046992.0,N
1581844716.0,286046992.0,N
1581844735.8,286046990.7,N
1581844755.7,286046991.6,N
1581844775.5,286046992.3,N
1581844795.3,286046992.2,N
1581844815.2,286046995.4,N
1581844835.0,286046995.7,N
1581844835.9,286046995.7,N
1581844855.8,286046995.7,N
1581844875.6,286046998.0,N
1581844895.4,286046999.6,N
1581844915.3,286046999.3,N
1581844935.1,286046999.1,N
1581844955.9,286046993.3,N
1581844975.7,286046993.4,N
1581844995.5,286046992.0,N
1581845015.4,286046990.3,N
1581845035.2,286046992.5,N
1581845055.0,286046992.4,N
1581845055.9,286046992.4,N
1581845075.8,286046991.9,N
1581845095.6,286046994.4,N
1581845115.5,286046995.1,N
1581845135.3,286046997.5,N
1581845155.1,286046997.5,N
1581845175.9,286046999.4,N
1581845195.7,286046996.0,N
1581845215.6,286046994.7,N
1581845235.4,286046992.4,N
1581845285.3,286046987.2,E
1581845295.2,286046996.4,N
1581845315.0,286047004.2,P
1581845315.9,286047004.2,N
1581845335.8,286047003.0,N
1581845355.6,286047005.9,N
1581845375.4,286047003.4,N
1581845395.3,286047004.5,N
1581845415.1,286047004.8,N
1581845435.9,286047003.8,N
1581845455.7,286047001.9,N
1581845475.5,286047000.2,N
1581845495.4,286047001.1,N
1581845515.2,286047002.6,N
1581845535.1,286047000.4,N
1581845536.0,286047000.4,N
1581845555.8,286047001.6,N
1581845575.6,286047004.2,N
1581845595.5,286047005.1,N
1581845615.3,286047005.3,N
1581845635.1,286047005.2,N
1581845655.9,286047008.4,Y
1581845675.7,286047007.0,P
1581845695.6,286047003.5,N
1581845715.4,286047002.6,N
1581845735.2,286047002.7,N
1581845755.1,286046999.3,N
1581845756.0,286046999.3,N
1581845775.8,286046997.1,N
1581845795.7,286046999.5,N
1581845815.5,286047001.0,N
1581845835.3,286047000.1,N
1581845855.2,286047001.4,N
1581845875.0,286047004.0,N
1581845875.9,286047004.0,N
1581845895.8,286047005.7,N
1581845915.6,286047005.5,N
1581845935.4,286047007.4,N
1581845955.3,286047006.4,N
1581845975.1,286047002.2,N
1581845995.8,286047000.9,N
1581846015.7,286047001.2,N
1581846035.5,286046999.1,N
1581846055.4,286046997.7,N
1581846075.2,286047001.2,N
1581846095.0,286047000.5,N
1581846095.9,286047000.5,N
1581846115.8,286047001.4,N
1581846165.6,286047006.9,E
1581846175.6,286047004.1,N
1581846195.4,286046999.9,P
1581846215.2,286047001.6,N
1581846235.1,286047000.4,N
1581846236.0,286047000.4,N
1581846255.8,286046997.7,N
1581846275.7,286046993.3,Y
1581846295.5,286046992.7,P
1581846315.3,286046993.1,N
1581846335.2,286046994.8,N
1581846355.0,286046993.9,N
1581846355.9,286046993.9,N
1581846375.7,286046996.3,N
1581846395.6,286046996.1,N
1581846415.4,286046997.0,N
1581846435.3,286046999.2,N
1581846455.1,286047002.3,N
1581846456.0,286047002.3,N
1581846475.8,286046999.7,N
1581846495.7,286047001.9,N
1581846515.5,286046998.5,N
1581846535.4,286046997.1,N
1581846555.2,286046993.7,N
1581846575.0,286046992.4,N
1581846575.9,286046992.4,N
1581846595.8,286046991.3,N
1581846615.6,286046990.6,N
1581846635.4,286046991.0,N
1581846655.3,286046991.0,N
1581846675.1,286046990.1,N
1581846695.9,286046992.6,N
1581846715.7,286046991.8,N
1581846735.5,286046993.9,N
1581846755.4,286046997.9,N
1581846775.2,286046999.3,N
1581846795.0,286046997.9,N
1581846796.0,286046997.9,N
1581846815.8,286046995.3,N
1581846835.6,286046993.7,N
1581846855.5,286046994.3,N
1581846875.3,286046992.8,N
1581846895.1,286046992.4,N
1581846915.9,286046992.6,N
1581846935.7,286046994.6,N
1581846955.6,286046996.1,N
1581846975.4,286046997.7,N
1581846995.2,286046999.6,N
1581847015.1,286046999.3,N
1581847016.0,286046999.3,N
1581847035.8,286046999.5,N
1581847055.7,286046996.9,N
1581847075.5,286046993.3,N
1581847095.3,286046993.5,N
1581847115.2,286046994.8,N
1581847135.0,286046990.1,Y
1581847135.9,286046990.1,P
1581847155.7,286046993.3,N
1581847175.6,286046995.5,N
1581847195.4,286046996.5,N
